User: anonymous
Location: Caltech
(34.1382°N, 118.1253°W)
Time: 03:43:29
(UTC-07:00)
Language:

CZ-2C R/B - Orbit

View from above orbital plane
View from above orbital plane
View from above satellite
View from above satellite

Ground track
Ground track

The orbit data is extracted from the following two-line orbital elements,

1 36089U 09061B   14231.13022250  .00000092  00000-0  34734-4 0  4023
2 36089 098.1021 261.5978 0081896 346.3436 065.2645 14.49202879252056
Epoch (UTC): 19 August 2014 03:07:31
Eccentricity: 0.0081896
inclination: 98.1021°
perigee height: 670 km
apogee height: 786 km
right ascension of ascending node: 261.5978°
argument of perigee: 346.3436°
revolutions per day: 14.49202879
mean anomaly at epoch: 65.2645°
orbit number at epoch: 25205

The dashed part of the orbit path shows where the satellite is in the earth's shadow,  

DLR